Latest Coastal Weather Observations for Gold Coast Seaway

IDQ60701

Issued at 5:51 am EST Tuesday 31 March 2015 (issued every 10 minutes, with the page automatically refreshed every 10 minutes)

About coastal observations | Map of coastal stations | Coastal observations for QLD | Marine services | Other Formats
Station Details ID: 040764 Name: GOLD COAST SEAWAY Lat: -27.94 Lon: 153.43 Height: 2.98 m
Data from the previous 72 hours. | See also: Recent months at Gold Coast Seaway
Date/Time
EST
Temp

°C
Wind Pressure Rain
since 9am
mm
Weather Cloud Vis
km
Sea
Height
m
Swell
Dir
 
Speed
knots
Gust
knots
hPa Trend Height
m
Period
s
Dir
31/05:30am 21.1 SSW 5 7 1021.4 - 0.0 - - - - - - -
31/05:00am 20.9 SSW 6 8 1021.2 - 0.0 - - - - - - -
31/04:30am 20.8 SW 5 8 1021.3 - 0.0 - - - - - - -
31/04:00am 20.5 SSW 6 8 1021.1 - 0.0 - - - - - - -
31/03:30am 20.4 SW 4 5 1021.2 - 0.0 - - - - - - -
31/03:00am 20.7 SSW 6 8 1021.4 - 0.0 - - - - - - -
31/02:30am 20.5 SW 6 7 1021.6 - 0.0 - - - - - - -
31/02:00am 20.6 SW 6 8 1021.9 - 0.0 - - - - - - -
31/01:30am 20.8 SW 6 7 1022.0 - 0.0 - - - - - - -
31/01:00am 20.8 SW 6 8 1022.4 - 0.0 - - - - - - -
31/12:30am 20.9 SSW 6 8 1022.6 - 0.0 - - - - - - -
 
Date/Time
EST
Temp

°C
Wind Pressure Rain
since 9am
mm
Weather Cloud Vis
km
Sea
Height
m
Swell
Dir
 
Speed
knots
Gust
knots
hPa Trend Height
m
Period
s
Dir
30/11:30pm 21.0 SW 6 7 1022.9 - 0.0 - - - - - - -
30/11:00pm 21.3 SW 6 7 1022.9 - 0.0 - - - - - - -
30/10:30pm 21.1 SSW 6 7 1023.0 - 0.0 - - - - - - -
30/10:00pm 21.4 SW 6 8 1023.3 - 0.0 - - - - - - -
30/09:30pm 21.6 SE 5 7 1023.5 - 0.0 - - - - - - -
30/09:00pm 22.5 ESE 5 6 1023.5 - 0.0 - - - - - - -
30/08:30pm 23.6 E 6 8 1023.4 - 0.0 - - - - - - -
30/08:00pm 23.7 E 6 7 1023.3 - 0.0 - - - - - - -
30/07:30pm 23.8 E 7 10 1022.9 - 0.0 - - - - - - -
30/07:00pm 23.9 E 8 10 1022.7 - 0.0 - - - - - - -
30/06:30pm 23.9 ESE 8 10 1022.4 - 0.0 - - - - - - -
30/06:00pm 24.1 ESE 8 10 1022.1 - 0.0 - - - - - - -
30/05:30pm 24.4 E 7 9 1021.7 - 0.0 - - - - - - -
30/05:00pm 24.8 ENE 8 10 1021.6 - 0.0 - - - - - - -
30/04:30pm 25.1 ENE 7 9 1021.3 - 0.0 - - - - - - -
30/04:00pm 25.5 E 7 9 1020.9 - 0.0 - - - - - - -
30/03:30pm 25.7 E 8 9 1020.9 - 0.0 - - - - - - -
30/03:00pm 25.7 ENE 7 8 1021.2 - 0.0 - - - - - - -
30/02:30pm 26.9 NE 7 8 1021.4 - 0.0 - - - - - - -
30/02:00pm 25.5 ENE 9 11 1021.1 - 0.0 - - - - - - -
30/01:30pm 25.9 ENE 10 14 1021.3 - 0.0 - - - - - - -
30/01:00pm 26.7 ENE 9 11 1021.9 - 0.0 - - - - - - -
30/12:30pm 27.6 ENE 8 11 1022.2 - 0.0 - - - - - - -
30/12:00pm 26.9 ENE 9 12 1022.6 - 0.0 - - - - - - -
30/11:30am 26.5 NE 10 12 1023.0 - 0.0 - - - - - - -
30/11:00am 27.3 ENE 8 10 1023.8 - 0.0 - - - - - - -
30/10:30am 26.7 ENE 9 12 1024.0 - 0.0 - - - - - - -
30/10:00am 26.1 ENE 9 12 1024.0 - 0.0 - - - - - - -
30/09:30am 25.9 ENE 9 10 1024.0 - 0.0 - - - - - - -
30/09:00am 26.2 ENE 9 11 1024.1 - 0.0 - - - - - - -
30/08:30am 26.1 ENE 9 11 1023.7 - 0.0 - - - - - - -
30/08:00am 25.5 ENE 9 11 1023.7 - 0.0 - - - - - - -
30/07:30am 24.8 ENE 10 13 1023.3 - 0.0 - - - - - - -
30/07:00am 24.8 ENE 10 13 1022.7 - 0.0 - - - - - - -
30/06:30am 24.2 ENE 9 12 1022.6 - 0.0 - - - - - - -
30/06:00am 24.1 ENE 10 12 1022.2 - 0.0 - - - - - - -
30/05:30am 23.9 ENE 9 11 1022.4 - 0.0 - - - - - - -
30/05:00am 24.0 E 10 12 1021.8 - 0.0 - - - - - - -
30/04:30am 23.9 ENE 9 11 1021.5 - 0.0 - - - - - - -
30/04:00am 24.0 NE 9 12 1021.3 - 0.0 - - - - - - -
30/03:30am 24.0 NE 9 13 1021.2 - 0.0 - - - - - - -
30/03:00am 23.6 NE 8 12 1021.7 - 0.0 - - - - - - -
30/02:30am 23.6 NE 9 10 1021.6 - 0.0 - - - - - - -
30/02:00am 23.9 NE 9 11 1021.8 - 0.0 - - - - - - -
30/01:30am 24.0 ENE 9 14 1021.7 - 0.0 - - - - - - -
30/01:00am 24.1 NE 8 9 1022.4 - 0.0 - - - - - - -
30/12:30am 24.1 ENE 9 10 1022.4 - 0.0 - - - - - - -
30/12:00am 23.7 NE 8 10 1022.7 - 0.0 - - - - - - -
 
Date/Time
EST
Temp

°C
Wind Pressure Rain
since 9am
mm
Weather Cloud Vis
km
Sea
Height
m
Swell
Dir
 
Speed
knots
Gust
knots
hPa Trend Height
m
Period
s
Dir
29/11:30pm 23.9 NE 8 9 1022.7 - 0.0 - - - - - - -
29/11:00pm 24.0 ENE 8 10 1022.7 - 0.0 - - - - - - -
29/10:30pm 24.0 ENE 9 11 1022.7 - 0.0 - - - - - - -
29/10:00pm 24.0 ENE 7 9 1023.0 - 0.0 - - - - - - -
29/09:30pm 24.0 ENE 8 9 1023.1 - 0.0 - - - - - - -
29/09:00pm 24.0 ENE 7 10 1023.1 - 0.0 - - - - - - -
29/08:30pm 24.0 ENE 6 9 1023.3 - 0.0 - - - - - - -
29/08:00pm 24.0 ENE 7 9 1023.0 - 0.0 - - - - - - -
29/07:30pm 24.1 ENE 7 9 1022.6 - 0.0 - - - - - - -
29/07:00pm 24.1 ENE 7 9 1022.5 - 0.0 - - - - - - -
29/06:30pm 24.2 ENE 7 9 1022.1 - 0.0 - - - - - - -
29/06:00pm 24.2 ENE 9 10 1021.8 - 0.0 - - - - - - -
29/05:30pm 24.7 NE 8 10 1021.5 - 0.0 - - - - - - -
29/05:00pm 25.4 NE 9 11 1021.4 - 0.0 - - - - - - -
29/04:30pm 25.9 NE 8 11 1021.2 - 0.0 - - - - - - -
29/04:00pm 26.3 NE 9 12 1021.1 - 0.0 - - - - - - -
29/03:30pm 26.7 NE 10 12 1021.0 - 0.0 - - - - - - -
29/03:00pm 27.1 ENE 9 11 1021.1 - 0.0 - - - - - - -
29/02:30pm 27.3 NE 9 11 1021.4 - 0.0 - - - - - - -
29/02:00pm 27.3 NE 10 13 1021.3 - 0.0 - - - - - - -
29/01:30pm 27.7 NE 9 12 1021.6 - 0.0 - - - - - - -
29/01:00pm 27.4 ENE 9 10 1022.0 - 0.0 - - - - - - -
29/12:30pm 27.7 NE 9 13 1022.3 - 0.0 - - - - - - -
29/12:00pm 28.1 NE 9 10 1022.5 - 0.0 - - - - - - -
29/11:30am 27.8 ENE 8 10 1023.1 - 0.0 - - - - - - -
29/11:00am 27.7 NE 8 10 1023.4 - 0.0 - - - - - - -
29/10:30am 27.3 ENE 7 11 1023.7 - 0.0 - - - - - - -
29/10:00am 27.0 ENE 9 11 1023.8 - 0.0 - - - - - - -
29/09:30am 27.0 ENE 9 11 1023.7 - 0.0 - - - - - - -
29/09:00am 26.4 ENE 10 15 1023.5 - 0.0 - - - - - - -
29/08:30am 26.4 ENE 12 15 1023.1 - 0.0 - - - - - - -
29/08:00am 25.3 ENE 11 15 1023.0 - 0.0 - - - - - - -
29/07:30am 25.2 ENE 12 16 1022.5 - 0.0 - - - - - - -
29/07:00am 24.5 ENE 13 16 1021.9 - 0.0 - - - - - - -
29/06:30am 24.4 ENE 13 15 1021.6 - 0.0 - - - - - - -
29/06:00am 24.0 ENE 12 17 1021.3 - 0.0 - - - - - - -
29/05:30am 24.0 ENE 13 16 1020.8 - 0.0 - - - - - - -
29/05:00am 24.0 ENE 12 15 1020.5 - 0.0 - - - - - - -
29/04:30am 24.0 E 13 15 1020.3 - 0.0 - - - - - - -
29/04:00am 24.1 ENE 13 15 1019.9 - 0.0 - - - - - - -
29/03:30am 24.2 ENE 13 15 1019.8 - 0.0 - - - - - - -
29/03:00am 24.1 ENE 10 12 1020.0 - 0.0 - - - - - - -
29/02:30am 24.2 ENE 11 13 1020.0 - 0.0 - - - - - - -
29/02:00am 24.1 ENE 9 13 1020.3 - 0.0 - - - - - - -
29/01:30am 24.1 E 11 15 1020.5 - 0.0 - - - - - - -
29/01:00am 24.2 E 12 14 1020.6 - 0.0 - - - - - - -
29/12:30am 24.4 E 13 15 1020.7 - 0.0 - - - - - - -
29/12:00am 24.3 ENE 12 14 1020.8 - 0.0 - - - - - - -
 
Date/Time
EST
Temp

°C
Wind Pressure Rain
since 9am
mm
Weather Cloud Vis
km
Sea
Height
m
Swell
Dir
 
Speed
knots
Gust
knots
hPa Trend Height
m
Period
s
Dir
28/11:30pm 24.3 E 11 14 1021.3 - 0.0 - - - - - - -
28/11:00pm 24.3 E 9 11 1021.7 - 0.0 - - - - - - -
28/10:30pm 24.3 E 11 14 1021.4 - 0.0 - - - - - - -
28/10:00pm 24.5 E 10 12 1021.5 - 0.0 - - - - - - -
28/09:30pm 24.5 E 10 14 1021.6 - 0.0 - - - - - - -
28/09:00pm 24.5 E 11 14 1021.6 - 0.0 - - - - - - -
28/08:30pm 24.7 E 13 16 1021.3 - 0.0 - - - - - - -
28/08:00pm 24.5 E 13 15 1021.1 - 0.0 - - - - - - -
28/07:30pm 24.6 E 13 16 1020.8 - 0.0 - - - - - - -
28/07:00pm 24.6 E 14 17 1020.4 - 0.0 - - - - - - -
28/06:30pm 24.8 E 13 15 1020.0 - 0.0 - - - - - - -
28/06:00pm 24.9 ESE 14 16 1019.7 - 0.0 - - - - - - -
28/05:30pm 25.0 ESE 13 15 1019.6 - 0.0 - - - - - - -
28/05:00pm 25.3 ESE 14 16 1019.5 - 0.0 - - - - - - -
28/04:30pm 25.8 E 12 15 1019.3 - 0.0 - - - - - - -
28/04:00pm 26.1 ESE 11 14 1019.4 - 0.0 - - - - - - -
28/03:30pm 26.9 E 11 14 1019.1 - 0.0 - - - - - - -
28/03:00pm 27.0 ESE 11 14 1019.1 - 0.0 - - - - - - -
28/02:30pm 27.7 ESE 11 14 1019.3 - 0.0 - - - - - - -
28/02:00pm 27.8 ESE 12 15 1019.3 - 0.0 - - - - - - -
28/01:30pm 27.5 ESE 11 14 1019.8 - 0.0 - - - - - - -
28/01:00pm 28.2 ESE 13 15 1019.9 - 0.0 - - - - - - -
28/12:30pm 28.3 ESE 12 15 1020.2 - 0.0 - - - - - - -
28/12:00pm 28.2 SE 14 16 1020.4 - 0.0 - - - - - - -
28/11:30am 27.8 SE 12 15 1020.8 - 0.0 - - - - - - -
28/11:00am 27.2 SE 14 16 1021.1 - 0.0 - - - - - - -
28/10:30am 27.0 - - - 1021.5 - 0.0 - - - - - - -
28/10:00am 27.2 SE 14 16 1021.5 - 0.0 - - - - - - -
28/09:30am 27.4 SSE 12 14 1021.4 - 0.0 - - - - - - -
28/09:00am 25.8 SSE 12 15 1021.1 - 0.0 - - - - - - -
28/08:30am 24.8 SSE 12 14 1021.0 - 0.0 - - - - - - -
28/08:00am 24.5 SSE 8 10 1020.8 - 0.0 - - - - - - -
28/07:30am 24.2 SSE 10 13 1020.3 - 0.0 - - - - - - -
28/07:00am 23.8 SSE 10 13 1019.6 - 0.0 - - - - - - -
28/06:30am 22.8 SSE 9 11 1019.3 - 0.0 - - - - - - -
28/06:00am 22.6 SSE 10 13 1019.0 - 0.0 - - - - - - -

Other Formats:

Comma delimited format used in spreadsheet applications
http://www.bom.gov.au/fwo/IDQ60701/IDQ60701.94580.axf

JavaScript Object Notation format (JSON) in row-major order
http://www.bom.gov.au/fwo/IDQ60701/IDQ60701.94580.json